SCOUT B DEB, 2498

Orbit data source: Space-Track

SCOUT B DEB, 2498 is space debris in LEO originally from a launch on Fri, 10 Jun 1966 UTC launched from the Wallops Island (WLPIS). Debris objects in space refer to the collection of defunct objects orbiting the Earth. Examples of debris include non-operational satellites, rocket bodies, and fragments generated from explosions, collisions, or faulty payload assembly.

Loading next visibility...
Identifier
2498, 1966-052C
Orbit
LEO
Country
Flag of USUS
Related business
Manufacturer
Unknown
Mission
Spacecraft
Bus & Motor
Unknown
Mass
Unknown
Launch date (UTC)
1966-06-10 (59 years ago)
Launch vehicle
Unknown
Launch site
Wallops Island (WLPIS)
Object type
Payload
Rocket body
Debris
Shape & HBR
Unknown
Radar Cross Section
Small (<0.1 m²)

Expand to show TLE details & history
Last TLE update: 1 week ago

TLE from 1 week ago
0 SCOUT B DEB
1 02498U 66052C   25251.23464120  .00000075  00000-0  82693-4 0  9993
2 02498  40.6378 192.1515 2069605 230.8555 108.9463 10.56234653447059
Epoch: 2025-09-08T05:37Z
TLE epoch observation values (Epoch: 2025-09-08T05:37:52.999Z)
Latitude
0.00001°
Longitude
120.138°
Altitude
3,284.208 km
Speed
6.091 km/s
True Right ascension
12h 48m 36s
True Declination
0° 00' 00"
Sunlit
Object was in daylight at epoch
Visualization orbit readout
Latitude
Unknown
Longitude
Unknown
Altitude
Unknown
Speed
Unknown
Apparent Right ascension
Unknown
Apparent Declination
Unknown
Sunlit
N/A
Visualization observer readout
Local Sidereal Time
05:27:15
Azimuth
Unknown
Elevation
Unknown
Doppler factor
Unknown
Orbital elements
Apogee altitude
4,214.841 km
Perigee altitude
582.033 km
Semi-major axis
8,776.574 km
Eccentricity
0.20696
Inclination
40.6378°
RAAN
192.1515°
Arg. of periapsis
230.8555°
True anomaly
129.20987°
Mean anomaly
108.9463°
Eccentric anomaly
119.28844°
Mean motion
2.63971 °/min
Orbital period
136.38 mins
BSTAR
0.000082693
Loading maneuver chart data...
Computing Atmospheric mass density...
Loading historical data...
Loading historical data...
Loading historical data...
Loading historical data...
Loading historical data...
Loading historical data...
Loading historical data...
Other satellites on launch #52 in the year 1966 (1966-06-10 UTC)

Documentation

Showing up to 5 results
|